User: anonymous   Login
Location: Unspecified
(0.0000°N, 0.0000°E)
Time: 20:47:09
(UTC+00:00)
Language:

TBA - TO BE ASSIGNED - Orbit

View from above orbital plane
View from above orbital plane
View from above satellite
View from above satellite

Ground track
Ground track

The orbit is defined by the following mean orbital elements,

1 69017U          26145.58074892 +.00000000 +00000-0 +12415-4 0 00004
2 69017  97.4076  43.8150 0004710  89.7824 270.3951 15.20683256    04
Epoch (UTC): 25 May 2026 13:56:16
Eccentricity: 0.0004710
inclination: 97.4076°
perigee height: 501 km
apogee height: 507 km
right ascension of ascending node: 43.8150°
argument of perigee: 89.7824°
revolutions per day: 15.20683256
mean anomaly at epoch: 270.3951°

The dashed part of the orbit path shows where the satellite is in the earth's shadow,  

DLR